Location: *
(0.9944°N, 10.7894°E)
Time: 14:32:11
(UTC+00:00)

Daily predictions for brighter satellites

Satellite Brightness Start Highest point End
(mag) Time Altitude Azimuth Time Altitude Azimuth Time Altitude Azimuth
ARIANE 5 R/B 4.0 17:26:27 10° WNW 17:30:03 67° N 17:51:53 10° E
BLOCK DM-SL R/B 4.3 17:36:33 10° W 17:41:36 89° SSW 17:58:36 10° E
Cosmos 1844 3.8 17:36:30 10° N 17:42:08 62° ENE 17:47:50 10° SSE
NOSS 3-3 (A) 4.0 17:41:11 10° S 17:46:30 43° ESE 17:51:46 10° NE
NOSS 3-3 (C) 4.1 17:41:19 10° S 17:46:36 42° ESE 17:51:51 10° NE
CZ-4 R/B 2.0 17:43:44 10° SE 17:47:21 33° ENE 17:50:53 10° NNE
ATLAS 5 CENTAUR R/B 3.0 17:45:27 10° NW 17:47:49 20° N 17:52:35 10° NE
STARLINK-1170 3.3 17:45:56 10° NNW 17:49:17 53° NE 17:52:38 10° SE
Cosmos 1707 2.7 17:45:47 10° N 17:49:40 77° E 17:53:33 10° S
Cosmos 1733 3.2 17:51:08 10° S 17:54:52 57° E 17:58:33 10° NNE
Meteor 1-22 Rocket 4.1 17:50:57 10° S 17:56:26 69° E 18:01:44 10° NNE
Centaur D-1AR AC-39 3.7 17:51:29 10° NW 17:57:35 22° N 18:00:41 10° ENE
Cosmos 1452 Rocket 4.5 17:54:44 10° NNE 17:59:03 26° ENE 18:03:22 10° SE
Spelda 3.4 17:58:20 10° WNW 18:00:41 49° N 18:04:20 13° ENE
Uosat 12 SS-18 rocket 4.4 17:57:03 10° NNW 18:01:41 83° ENE 18:07:18 10° SSE
STARLINK-1149 3.1 17:58:52 10° NNW 18:02:19 88° ENE 18:05:47 10° SE
Cosmos 1271 Rocket 2.9 17:59:58 10° NNE 18:03:30 43° E 18:07:04 10° SSE
Cosmos 1939 Rocket 3.1 18:01:40 10° SSE 18:05:35 46° E 18:09:26 10° N
Cosmos 1943 4.3 18:03:22 10° SSE 18:07:35 22° ESE 18:11:47 10° ENE
STARLINK-1179 3.4 18:06:36 10° NW 18:09:40 60° SW 18:12:44 10° SSE
STARLINK-1176 3.4 18:07:03 10° NW 18:10:07 59° SW 18:13:10 10° SSE
In-Cosmos 22 4.0 18:06:26 10° N 18:11:52 74° E 18:17:11 10° S
Lacrosse 5 2.3 18:07:10 10° NW 18:12:10 63° WSW 18:17:11 10° SSE
STARLINK-1173 3.3 18:09:40 10° NW 18:12:43 60° SW 18:15:47 10° SSE
STARLINK-1136 3.4 18:10:06 10° NW 18:13:08 59° WSW 18:16:13 10° SSE
Cosmos 2315 Rocket 4.2 18:08:53 10° SSE 18:14:52 48° E 18:20:51 10° NNE
CZ-2D R/B 3.2 18:11:45 10° SSE 18:15:34 60° ENE 18:19:19 10° N
STARLINK-1133 3.4 18:15:47 10° NW 18:18:53 60° SW 18:21:32 13° SSE
STARLINK-1180 3.4 18:16:02 10° NW 18:19:12 60° SW 18:21:56 13° SSE
STARLINK-1153 3.4 18:16:04 10° NW 18:19:14 60° WSW 18:21:58 13° SSE
STARLINK-1174 3.4 18:16:08 10° NW 18:19:17 60° WSW 18:21:58 13° SSE
STARLINK-1139 3.4 18:16:09 10° NW 18:19:18 60° SW 18:22:01 13° SSE
STARLINK-1151 3.4 18:16:22 10° NW 18:19:30 59° SW 18:22:09 13° SSE
STARLINK-1183 3.4 18:16:38 10° NW 18:19:41 57° WSW 18:22:14 14° SSE
STARLINK-1181 3.4 18:17:05 10° NW 18:20:07 56° SW 18:22:40 14° SSE
STARLINK-1196 3.5 18:17:33 10° NW 18:20:35 55° SW 18:23:06 14° SSE
STARLINK-1186 3.5 18:17:59 10° NW 18:21:02 54° WSW 18:23:34 14° SSE
STARLINK-1185 3.5 18:18:26 10° NW 18:21:28 53° SW 18:23:57 14° SSE
STARLINK-1175 3.6 18:18:54 10° NW 18:21:57 52° SW 18:24:27 14° SSE
SL-4 R/B 1.8 18:18:35 10° SW 18:22:09 72° NW 18:25:17 12° NNE
STARLINK-1147 3.6 18:19:21 10° NW 18:22:22 51° SW 18:24:50 14° SSE
Cosmos 1674 3.0 18:19:01 10° NNE 18:22:28 38° E 18:24:59 16° SSE
H-2A R/B 3.9 18:24:37 14° NE 18:24:37 14° NE 18:26:04 10° NE
STARLINK-1146 3.7 18:19:49 10° NW 18:22:49 50° SW 18:25:16 14° SSE
STARLINK-1152 3.7 18:20:16 10° NW 18:23:16 49° SW 18:25:41 15° SSE
STARLINK-1195 3.7 18:20:42 10° NW 18:23:44 48° SW 18:26:10 14° SSE
STARLINK-1137 3.8 18:21:10 10° NW 18:24:09 47° WSW 18:26:33 15° SSE
Cosmos 967 Rocket 4.4 18:17:57 10° SSW 18:24:15 72° ESE 18:30:36 10° NNE
CZ-2C R/B 4.2 18:20:01 10° NE 18:24:15 36° ESE 18:28:26 10° SSE
STARLINK-1142 3.8 18:21:38 10° NW 18:24:38 46° SW 18:27:02 15° SSE
SL-16 R/B 4.3 18:19:57 10° SW 18:24:48 29° WNW 18:29:39 10° NNW
STARLINK-1127 3.9 18:22:06 10° NW 18:25:05 45° SW 18:27:26 15° SSE
CSL-04 Rocket 3.6 18:19:50 10° SSE 18:25:12 65° ENE 18:30:28 10° N
SL-08 R/B 4.4 18:19:04 10° N 18:25:16 70° E 18:31:33 10° S
STARLINK-1184 3.9 18:22:33 10° NW 18:25:31 44° WSW 18:27:52 15° SSE
STARLINK-1193 3.9 18:22:59 10° NW 18:26:00 44° SW 18:28:21 15° SSE
STARLINK-1168 4.0 18:23:12 10° NW 18:26:17 44° WSW 18:28:46 14° SSE
STARLINK-1164 4.0 18:23:16 10° NW 18:26:21 44° SW 18:28:50 14° SSE
STARLINK-1194 4.0 18:23:27 10° NW 18:26:25 43° SW 18:28:43 15° SSE
STARLINK-1182 4.0 18:23:20 10° NW 18:26:26 44° SW 18:28:55 14° SSE
STARLINK-1172 4.0 18:23:59 10° NW 18:27:04 43° SW 18:29:32 15° SSE
STARLINK-1145 4.1 18:24:06 10° NW 18:27:11 43° SW 18:29:41 14° SSE
STARLINK-1161 4.1 18:24:15 10° NW 18:27:20 43° WSW 18:29:50 14° SSE
STARLINK-1160 4.1 18:24:25 10° NW 18:27:30 43° WSW 18:29:59 14° SSE
KORONAS-FOTON 4.0 18:25:54 10° NNE 18:29:30 44° E 18:30:55 30° SE
ARIANE 5 DEB (SYLDA) 3.1 18:28:21 10° WSW 18:30:23 36° S 18:31:01 32° SE
Meteor 2-15 4.3 18:25:46 10° S 18:31:47 65° E 18:37:46 10° NNE
Delta 168 3.2 18:27:49 10° WNW 18:31:57 88° SSW 18:34:52 29° ESE
Ariane H10+ 2.4 18:24:06 10° W 18:33:50 52° SSW 18:35:36 31° SE
NOSS 3-1 (C) 4.4 18:25:31 10° N 18:34:02 57° ENE 18:42:11 12° SE
Intelsat 5-1 Rocket 3.5 18:36:02 10° WSW 18:38:47 27° SSW 18:41:14 19° SSE
Cosmos 1242 Rocket 4.4 18:38:30 10° NNW 18:41:37 30° W 18:44:47 10° SSW
Ariane H10+ 3.7 18:33:42 10° W 18:43:11 66° S 18:45:27 38° ESE
Cosmos 1603 3.6 18:40:59 10° SSW 18:46:42 84° ESE 18:52:20 10° NNE
YAOGAN 1 3.9 18:42:53 10° S 18:46:57 40° WSW 18:51:00 10° NNW
Cosmos 2251 Rocket 3.5 18:43:56 10° SSW 18:49:14 83° WNW 18:54:33 10° N
DMSP B5D2-2 4.1 18:46:22 10° NNE 18:51:27 54° ESE 18:56:34 10° S
Aurora 2 Rocket 3.9 18:51:44 10° W 18:54:52 26° SSW 18:55:32 25° S
Lacrosse 4 Rocket 4.2 18:56:10 10° WNW 18:59:07 18° WSW 19:02:01 10° SSW
STARLINK-1162 4.3 18:56:49 10° NNW 18:59:48 45° NNW 18:59:48 45° NNW
Hubble Space Telescope 1.1 18:57:17 10° WSW 19:00:57 64° WNW 19:00:57 64° WNW
Atlas Centaur 2 3.1 18:57:06 10° NNW 19:00:56 27° N 19:00:56 27° N
STARLINK-1129 4.5 18:58:10 10° NNW 19:00:58 41° NNW 19:00:58 41° NNW
SL-08 ROCKET BODY 4.5 19:02:55 10° N 19:08:52 72° W 19:14:45 10° S
OAO 1 4.4 19:04:40 10° SW 19:10:10 89° SW 19:10:10 89° SW
Cosmos 371 Rocket 3.7 19:09:32 10° NNW 19:14:17 59° WSW 19:14:52 54° SW
ARIANE 5 DEB (SYLDA) 3.8 18:41:48 10° W 19:15:34 88° S 19:17:28 57° E
Yuri Rocket 4.3 19:06:45 10° SW 19:16:27 74° SSE 19:17:26 66° ESE
Cosmos 2278 Rocket 2.8 19:20:15 10° NNW 19:25:45 54° WSW 19:26:52 46° SW
Ariane Rocket 4.4 19:33:38 33° NW 19:33:38 33° NW 19:36:27 10° NNW
NOSS 3-1 (A) 4.5 19:44:04 10° NNW 19:52:47 66° WSW 19:54:03 60° SSW
